AB5PM Weather Reports


time (UTC)temp
C
wind
direction
speed
KPH
gust
KPH
rain 1hr
cm
rain 24hr
cm
rain mn
cm
humidity
%
barometer
mb
20260506040022 16 30 4.8 17.7 0.00 0.00 0.00 77 1010.1
20260506034523 17 355 4.8 14.5 0.00 0.00 0.00 77 1009.9
20260506033024 17 30 4.8 17.7 0.00 0.00 0.00 77 1009.6
20260506024544 19 360 3.2 11.3 0.00 0.00 0.00 76 1008.9
20260506023023 20 305 4.8 12.9 0.00 0.00 0.00 76 1008.2
20260506021528 20 325 4.8 16.1 0.00 0.00 0.00 75 1008.0
20260506020013 20 324 6.4 14.5 0.00 0.00 0.00 74 1007.7
20260506014520 21 53 4.8 16.1 0.00 0.00 0.00 73 1007.3
20260506013037 21 349 6.4 16.1 0.00 0.00 0.00 72 1007.1
20260506011523 22 13 3.2 11.3 0.00 0.00 0.00 71 1006.6
20260506010009 22 309 1.6 12.9 0.00 0.00 0.00 70 1006.8
20260506004506 22 344 1.6 9.7 0.00 0.00 0.00 69 1006.7
20260506003005 23 288 6.4 16.1 0.00 0.00 0.00 68 1006.5
20260506000004 25 42 4.8 17.7 0.00 0.00 0.00 66 1005.9
20260505234506 25 319 6.4 17.7 0.00 0.00 0.00 64 1005.7
20260505233021 26 14 8.0 25.7 0.00 0.00 0.00 62 1005.4
20260505231504 27 35 6.4 22.5 0.00 0.00 0.00 60 1005.4
20260505224504 30 340 3.2 17.7 0.00 0.00 0.00 50 1004.9
20260505223006 31 5 6.4 14.5 0.00 0.00 0.00 47 1004.5
20260505221509 31 312 8.0 20.9 0.00 0.00 0.00 45 1004.3
20260505220004 32 271 8.0 14.5 0.00 0.00 0.00 51 1004.2
20260505213011 32 245 3.2 22.5 0.00 0.00 0.00 52 1004.5
20260505211508 32 248 4.8 16.1 0.00 0.00 0.00 53 1004.5
20260505210008 31 201 8.0 19.3 0.00 0.00 0.00 54 1004.7
20260505204507 31 255 4.8 17.7 0.00 0.00 0.00 55 1004.8
20260505203009 31 300 4.8 17.7 0.00 0.00 0.00 55 1005.1
20260505201510 31 171 3.2 19.3 0.00 0.00 0.00 55 1005.2
20260505200025 31 210 4.8 22.5 0.00 0.00 0.00 57 1005.2
20260505194512 30 196 8.0 20.9 0.00 0.00 0.00 56 1005.2
20260505191512 30 240 6.4 19.3 0.00 0.00 0.00 58 1005.1
20260505190011 30 202 4.8 14.5 0.00 0.00 0.00 60 1005.3
20260505184517 29 209 8.0 24.1 0.00 0.00 0.00 59 1005.4
20260505183012 29 197 8.0 22.5 0.00 0.00 0.00 62 1005.2
20260505180016 28 188 6.4 22.5 0.00 0.00 0.00 66 1005.3
20260505174516 28 194 8.0 19.3 0.00 0.00 0.00 66 1005.4
20260505173034 27 190 6.4 24.1 0.00 0.00 0.00 69 1005.5
20260505164529 26 236 9.7 22.5 0.00 0.00 0.00 73 1005.5
20260505163017 25 128 8.0 25.7 0.00 0.00 0.00 74 1005.5
20260505161516 25 218 8.0 29.0 0.00 0.00 0.00 74 1005.4
20260505151505 23 188 9.7 32.2 0.00 0.00 0.00 78 1005.1
20260505124507 22 209 9.7 20.9 0.00 0.00 0.00 83 1004.8
20260505123014 21 182 8.0 29.0 0.00 0.00 0.00 83 1004.4
20260505121514 21 161 8.0 25.7 0.00 0.00 0.00 83 1004.4
20260505114510 22 171 8.0 29.0 0.00 0.00 0.00 82 1004.3
20260505113013 21 227 8.0 20.9 0.00 0.00 0.00 83 1004.3
20260505111516 21 165 11.3 29.0 0.00 0.00 0.00 83 1003.9
20260505101516 21 202 12.9 29.0 0.00 0.00 0.00 83 1004.1
20260505100016 21 199 8.0 30.6 0.00 0.00 0.00 83 1004.2
20260505094521 21 131 9.7 27.4 0.00 0.00 0.00 83 1004.2
20260505093009 21 209 8.0 27.4 0.00 0.00 0.00 83 1004.3
20260505091509 21 204 8.0 22.5 0.00 0.00 0.00 83 1004.6
20260505090014 21 242 8.0 25.7 0.00 0.00 0.00 83 1004.6
20260505084522 21 211 4.8 20.9 0.00 0.00 0.00 82 1004.6
20260505083031 21 197 6.4 20.9 0.00 0.00 0.00 82 1004.6
20260505081507 21 169 6.4 25.7 0.00 0.00 0.00 81 1004.7
20260505080014 22 171 8.0 29.0 0.00 0.00 0.00 80 1004.8
20260505074520 22 198 8.0 20.9 0.00 0.00 0.00 80 1004.9
20260505073022 22 162 8.0 22.5 0.00 0.00 0.00 79 1005.3
20260505071525 22 173 8.0 24.1 0.00 0.00 0.00 78 1005.4
20260505070011 22 179 6.4 25.7 0.00 0.00 0.00 78 1005.7
20260505064516 22 202 8.0 20.9 0.00 0.00 0.00 77 1005.9
20260505063031 22 200 4.8 22.5 0.00 0.00 0.00 77 1005.9
20260505061530 22 198 8.0 22.5 0.00 0.00 0.00 76 1006.1
20260505060020 22 138 4.8 24.1 0.00 0.00 0.00 76 1005.9